Flag for Germany Weather past 2 weeks in Essen, North Rhine-Westphalia, Germany

Now
43 °F

Broken clouds.


Feels Like: 40 °F
Forecast: 36 / 47 °F
Wind: 5 mph from West

Location: Duesseldorf

Current Time: Mar 5, 2015 at 1:11:25 PM

Latest Report: Mar 5, 2015 at 12:20 PM


Visibility: N/A

Pressure: 30.66 "Hg

Humidity: 81%

Dew point: 37 °F

Location of EssenLocation

Historic Weather in Essen — Graph

°F

Essen temperature yesterday

Maximum temperature yesterday: 45 °F (at 1:20 PM)
Minimum temperature yesterday: 34 °F (at 3:50 AM)
Average temperature yesterday: 39 °F

Past Weeks' High & Low Weather Summary

 TemperatureHumidityPressure
High52 °F (Mar 1, 10:50 AM)100% (Feb 18, 11:20 AM)30.74 "Hg (Feb 18, 11:20 AM)
Low28 °F (Feb 28, 4:20 AM)43% (Feb 28, 3:50 PM)29.36 "Hg (Feb 21, 3:50 AM)
Average41 °F80%29.92 "Hg
* Reported Feb 18 11:20 AM — Mar 5 11:50 AM, Essen, Weather by CustomWeather, © 2015

Note: Actual official high and low records may vary slightly from our data, if they occured in-between our weather recording intervals... More about our weather records

Advertising

Essen weather history for previous 24 hours

 ConditionsComfort  
Time TempWeatherWind HumidityBarometerVisibility
11:50 AM
Thu, Mar 5
43 °FBroken clouds.5 mph81%30.66 "HgN/A
11:20 AM41 °FPartly sunny.5 mph87%30.66 "Hg4 mi
10:50 AM39 °FFog.5 mph93%30.66 "Hg3 mi
10:20 AM39 °FFog.6 mph93%30.66 "Hg1 mi
9:50 AM37 °FFog.6 mph100%30.66 "Hg1 mi
9:20 AM37 °FFog.6 mph100%30.66 "Hg1 mi
8:50 AM39 °FFog.6 mph93%30.63 "Hg1 mi
8:20 AM37 °FFog.3 mph100%30.63 "Hg1 mi
7:50 AM37 °FFog.7 mph93%30.63 "Hg2 mi
7:20 AM37 °FFog.5 mph93%30.63 "Hg2 mi
6:50 AM37 °FFog.7 mph93%30.63 "Hg2 mi
6:20 AM37 °FPartly cloudy.6 mph93%30.63 "Hg4 mi
5:20 AM37 °FPassing clouds.6 mph93%30.60 "HgN/A
4:20 AM37 °FPassing clouds.6 mph87%30.57 "HgN/A
3:50 AM39 °FPassing clouds.7 mph81%30.57 "HgN/A
2:50 AM39 °FPassing clouds.8 mph87%30.57 "HgN/A
2:20 AM41 °FPassing clouds.8 mph81%30.54 "HgN/A
1:50 AM41 °FPassing clouds.8 mph81%30.54 "HgN/A
1:20 AM41 °FPartly cloudy.9 mph81%30.54 "HgN/A
12:50 AM41 °FPartly cloudy.9 mph81%30.51 "HgN/A
12:20 AM41 °FPartly cloudy.9 mph81%30.51 "HgN/A
11:50 PM
Wed, Mar 4
41 °FPartly cloudy.10 mph87%30.48 "HgN/A
11:20 PM41 °FPartly cloudy.12 mph87%30.48 "HgN/A
10:20 PM41 °FPartly cloudy.12 mph81%30.45 "HgN/A
9:50 PM41 °FPassing clouds.12 mph81%30.42 "HgN/A
9:20 PM41 °FPartly cloudy.10 mph81%30.42 "HgN/A
8:50 PM39 °FSprinkles. Partly cloudy.8 mph87%30.39 "HgN/A
8:20 PM39 °FSprinkles. Passing clouds.9 mph87%30.39 "HgN/A
7:50 PM39 °FPassing clouds.7 mph87%30.39 "HgN/A
7:20 PM39 °FSprinkles. Partly cloudy.5 mph87%30.36 "HgN/A
6:50 PM39 °FLight rain. Partly cloudy.9 mph87%30.36 "HgN/A
6:20 PM39 °FSprinkles. Partly cloudy.17 mph81%30.36 "HgN/A
5:50 PM43 °FScattered clouds.14 mph71%30.33 "HgN/A
5:20 PM45 °FScattered clouds.14 mph66%30.30 "HgN/A
4:50 PM45 °FScattered clouds.16 mph61%30.30 "HgN/A
4:20 PM43 °FScattered clouds.14 mph76%30.30 "HgN/A
3:50 PM43 °FScattered clouds.12 mph76%30.27 "HgN/A
3:20 PM45 °FSprinkles. Scattered clouds.13 mph66%30.27 "HgN/A
2:50 PM43 °FSprinkles. Broken clouds.10 mph71%30.27 "HgN/A
2:20 PM45 °FSprinkles. Broken clouds.14 mph66%30.27 "HgN/A
1:50 PM43 °FSprinkles. Broken clouds.16 mph71%30.27 "HgN/A
1:20 PM45 °FPartly sunny.17 mph66%30.27 "HgN/A
Weather by CustomWeather, © 2015

See weather overviewHow to use our weather pages